Helicity
66 52 75 60 60 61 63 65 69 67 73 67 57 55 68 67 75 89 75 73 72 85 77 83 74 64 16 74 67 62 91 51 27 72 91 40 137 83 90 86 116 116 127 63 109 1 38
69 70 77 58 59 69 63 63 69 63 74 67 64 59 66 66 65 101 89 92 85 76 114 113 114 59 27 83 104 103 73 24 22 28 85 107 40 48 92 93 115 90 123 163 170 155 125
70 70 71 55 54 65 62 64 57 61 68 58 59 67 86 103 101 104 107 118 117 88 117 130 97 80 186 48 108 96 37 3 -11 5 55 68 47 51 50 84 83 127 149 157 155 145 92
72 69 65 55 60 59 56 57 50 61 66 64 60 72 91 111 118 136 145 135 127 105 141 102 59 44 44 80 73 87 103 98 96 39 40 48 29 100 53 55 130 83 103 97 70 119 108
63 61 67 57 52 64 55 43 63 68 68 69 74 82 88 107 122 137 141 133 97 144 71 88 31 33 44 91 88 77 54 22 28 68 123 43 48 57 65 55 62 88 43 34 52 25 25
60 68 64 65 45 53 57 50 61 64 61 66 70 79 99 124 145 140 122 102 129 108 91 60 23 46 64 60 82 70 87 67 23 2 18 52 35 45 91 75 62 40 33 31 23 18 50
66 71 55 50 70 43 48 51 62 69 63 66 75 98 107 157 165 139 102 100 121 124 207 71 51 62 18 10 57 84 24 86 85 95 49 124 106 60 38 8 -1 7 1 -2 -14 0 -11
75 65 55 60 57 48 47 59 69 68 72 79 92 98 122 170 151 108 100 89 69 55 142 173 87 67 39 40 68 168 93 51 79 142 20 50 106 -18 -12 20 36 34 15 7 -4 20 38
76 69 69 61 46 41 50 63 72 67 73 84 100 108 122 136 112 183 127 109 94 57 71 105 100 60 33 34 88 99 42 15 46 122 119 55 1 38 21 56 49 2 13 4 2 34 56
71 85 68 55 43 48 54 59 66 70 74 93 108 123 117 85 138 125 135 139 104 42 46 48 53 34 24 25 75 46 25 31 32 17 21 48 -12 20 28 21 4 3 22 17 23 67 13
114 97 64 64 50 55 61 61 63 75 77 95 113 128 128 81 58 140 103 109 65 61 40 34 82 36 46 55 38 74 24 54 47 23 13 -10 29 29 30 -2 13 -8 -8 34 55 80 110
132 94 76 63 62 63 68 70 73 86 91 104 123 108 110 127 135 120 126 86 74 51 35 61 66 70 81 90 64 44 49 53 12 83 82 20 9 20 -1 -5 29 4 6 45 81 89 85
117 92 84 65 65 64 69 74 85 97 104 115 137 111 102 107 101 124 116 120 81 75 55 71 91 87 85 84 86 72 77 90 58 58 44 20 33 9 2 25 31 66 35 21 62 63 60
114 88 86 70 60 66 68 76 89 108 119 123 126 107 142 147 142 120 164 169 77 61 106 80 115 116 106 85 95 82 88 98 94 86 70 60 37 42 10 8 -3 -12 -21 2 59 101 187
110 97 91 75 61 60 71 75 97 114 132 128 108 142 152 198 172 143 177 144 78 61 87 137 162 130 114 108 101 97 94 86 75 61 88 79 65 50 59 27 27 13 49 37 77 112 141
106 103 87 78 69 60 74 81 102 122 148 128 139 155 177 218 167 169 194 135 120 99 123 158 138 111 100 106 123 106 80 60 63 61 57 55 107 72 49 56 59 51 28 59 78 109 114
104 101 81 79 77 71 76 89 106 126 148 128 161 180 151 187 170 217 163 129 111 130 136 148 136 136 115 123 121 100 91 79 62 74 76 72 106 86 76 88 67 56 67 103 90 115 129
115 103 74 88 78 78 79 92 107 127 135 167 165 180 167 154 235 206 148 115 115 159 165 150 141 138 129 145 143 121 111 94 88 92 89 81 103 106 88 63 84 82 89 116 103 66 147
116 110 97 87 81 81 84 94 103 126 140 158 201 169 162 152 182 222 176 168 143 160 146 137 136 129 136 155 149 140 138 119 117 111 96 65 107 117 112 117 105 112 141 178 188 163 158
132 115 101 90 80 78 81 88 98 126 144 172 176 167 194 186 170 159 191 154 173 171 170 151 143 157 172 166 158 144 150 135 127 104 90 121 131 140 124 108 157 141 153 205 249 212 187
125 102 87 82 80 84 84 90 107 137 149 177 199 137 147 145 166 147 167 136 180 156 151 150 140 123 142 152 162 164 184 165 139 138 151 136 117 150 114 123 173 127 133 222 272 234 255
114 102 87 91 93 87 84 83 107 141 157 181 157 118 170 142 150 193 170 124 159 154 120 121 125 107 122 132 121 109 170 146 134 143 153 157 143 128 109 108 167 157 74 118 199 192 198
99 94 98 100 101 89 77 90 111 137 166 164 135 126 122 143 152 166 130 115 114 147 114 97 98 135 119 95 107 114 115 122 130 151 155 178 176 168 123 134 132 151 115 139 168 242 217
97 98 99 104 85 93 87 95 112 130 149 125 115 104 99 126 129 123 113 139 119 112 120 105 115 119 90 131 122 115 121 109 124 120 176 207 213 188 172 158 196 101 124 157 149 143 153
96 92 95 98 99 91 88 97 108 125 114 115 107 103 86 122 124 147 124 158 188 172 168 152 137 110 110 123 137 131 109 123 102 119 140 224 267 200 201 221 135 75 143 193 225 133 130
92 97 100 100 101 92 86 90 96 119 110 134 134 101 87 94 89 134 155 136 166 184 175 154 166 154 138 125 138 149 129 112 149 136 137 174 223 219 274 274 187 107 91 157 192 88 68
90 93 90 95 101 85 80 80 89 112 112 108 128 105 90 104 91 131 154 131 138 167 159 152 133 135 126 145 161 155 135 134 145 164 176 241 202 228 309 304 214 55 66 175 203 139 133
81 86 95 93 87 77 72 72 76 99 109 108 115 135 83 99 79 106 116 111 159 164 155 89 153 128 161 172 153 123 141 131 143 115 143 151 181 252 312 357 226 97 121 214 143 153 138
79 95 91 81 79 68 65 68 68 84 96 108 113 118 110 100 70 76 80 99 126 122 140 143 131 107 106 167 119 147 161 166 155 158 132 174 240 226 272 213 178 166 170 160 166 149 124
Wind_Speed
26 28 20 22 19 24 23 19 26 32 32 32 32 32 32 32 31 32 28 27 30 29 30 30 31 31 29 34 35 37 39 39 41 43 41 33 33 28 27 28 30 30 35 32 41 35 46
30 29 22 23 22 22 25 22 27 33 33 33 33 34 33 34 33 33 31 30 30 28 27 28 28 28 30 33 31 37 37 38 38 38 40 40 32 30 31 31 33 33 33 37 46 45 48
33 31 24 24 23 23 24 23 31 32 35 34 33 34 34 35 34 34 33 32 30 28 27 24 24 32 36 33 33 36 38 39 35 36 39 38 39 31 29 32 34 35 39 39 51 51 50
36 32 26 27 23 28 27 24 31 31 34 35 33 34 35 35 35 33 32 30 26 27 26 26 28 28 31 30 35 38 33 33 34 36 37 39 36 41 36 31 38 40 43 48 52 56 53
38 33 27 31 32 19 25 32 27 32 33 33 34 34 33 34 33 30 27 28 23 28 25 27 27 27 28 28 30 29 35 25 25 33 38 37 42 46 43 35 41 50 48 50 50 52 56
42 35 31 25 34 28 22 32 31 31 32 33 33 33 32 32 30 25 21 25 20 21 24 23 29 31 22 23 23 27 27 36 32 34 39 45 43 47 53 49 47 52 52 54 59 59 63
43 35 36 36 22 35 28 31 31 31 32 32 33 31 30 28 25 20 16 27 21 18 18 32 29 31 25 26 35 36 34 38 37 42 40 53 48 52 52 50 46 47 54 59 61 61 67
44 39 38 32 32 31 32 28 31 32 32 32 32 30 28 25 21 17 16 20 19 11 26 19 25 25 27 30 37 45 45 38 45 47 38 44 54 49 50 53 51 54 61 66 59 69 67
45 40 35 35 36 33 33 30 30 31 31 31 30 30 28 24 21 17 12 18 24 14 21 22 25 27 29 37 41 47 45 41 45 47 51 47 46 50 52 56 57 55 63 67 69 69 60
47 39 37 36 37 33 32 30 30 30 31 30 28 29 29 20 21 21 19 24 26 21 22 23 26 28 30 28 37 45 45 38 40 40 41 47 48 52 56 57 58 56 63 65 68 71 72
43 38 38 33 37 33 29 29 29 29 29 28 26 24 22 23 9 19 20 25 23 25 19 21 25 26 31 29 26 45 45 45 44 43 39 40 51 54 59 58 59 53 60 58 60 61 62
41 39 35 33 31 30 27 28 27 28 28 26 26 24 20 20 19 17 18 18 21 18 16 21 21 19 26 32 33 35 41 40 37 44 45 40 42 51 55 55 53 62 58 57 55 55 65
42 41 36 33 32 29 27 26 25 26 27 25 25 20 22 22 13 21 11 15 14 13 20 17 18 18 24 27 32 35 40 43 42 42 46 43 49 45 58 59 52 68 64 63 62 66 63
41 41 36 32 32 27 28 25 24 24 25 24 20 18 18 18 21 15 12 14 11 19 14 22 17 17 26 29 33 34 37 39 43 43 41 48 50 52 57 56 59 60 59 59 66 67 65
40 39 39 34 32 28 27 25 23 24 23 22 15 20 21 25 25 18 11 11 16 15 16 13 16 22 27 31 31 34 37 36 35 39 43 46 46 44 54 50 53 55 60 48 54 54 61
42 40 40 35 33 29 26 25 24 24 22 19 19 21 24 34 24 17 18 17 26 22 22 14 22 25 23 25 30 32 33 31 32 36 39 39 45 42 47 45 52 49 46 55 58 66 69
42 40 38 33 31 29 26 24 25 24 22 18 21 25 28 29 21 21 18 23 24 25 21 22 26 27 27 27 28 31 32 30 29 32 40 39 43 44 46 48 47 50 51 51 50 50 59
42 41 39 30 28 28 27 27 26 26 22 21 24 28 29 24 22 26 22 21 22 20 24 26 27 28 25 27 30 30 30 33 24 27 38 38 41 47 48 42 37 43 43 46 55 54 45
40 36 32 30 27 25 27 26 26 24 23 22 28 27 29 25 22 23 25 25 26 24 24 27 29 29 28 27 33 29 30 32 23 29 31 31 43 54 51 44 38 41 37 39 42 45 42
38 34 31 30 27 25 24 24 26 23 21 24 27 25 31 28 28 22 22 24 25 26 26 26 27 28 27 30 34 27 29 30 29 31 29 31 36 40 51 49 41 41 36 32 34 45 45
37 33 30 30 31 28 24 21 23 24 23 25 29 29 29 26 28 23 23 22 21 25 27 25 30 28 26 29 29 30 27 28 32 31 35 35 47 39 38 39 37 38 35 28 26 30 38
37 33 29 29 30 27 22 20 19 24 23 28 27 25 28 25 19 18 23 23 20 24 22 26 29 23 25 29 28 29 27 30 35 32 33 35 49 47 53 41 36 38 33 26 23 25 27
34 34 30 28 27 25 25 19 16 19 25 28 27 26 25 25 19 21 22 18 19 18 28 28 22 25 26 27 26 31 28 31 33 31 31 37 42 50 55 49 50 50 30 22 26 22 22
36 34 30 29 27 24 24 20 20 22 27 26 28 25 25 24 22 21 16 20 14 19 25 26 21 26 26 24 29 34 37 38 34 29 28 36 37 42 52 51 55 44 37 31 21 19 16
36 34 31 28 26 23 21 19 18 21 26 25 25 26 25 24 20 18 14 15 17 21 24 23 28 28 18 31 40 43 42 41 39 29 21 23 29 42 47 47 53 54 37 30 28 28 18
35 32 29 27 26 22 19 15 14 15 16 21 22 25 24 20 21 21 13 13 17 20 25 27 26 25 30 35 37 39 42 42 43 38 31 19 24 30 41 49 52 45 36 35 33 45 31
31 28 27 25 23 21 16 14 14 15 18 22 22 24 22 20 22 21 20 16 19 23 27 26 23 28 32 32 35 36 39 36 42 39 35 33 30 27 35 45 46 36 25 34 43 42 31
31 29 26 25 23 19 16 13 13 16 18 22 20 25 23 21 21 23 23 21 23 22 24 20 25 31 29 30 32 33 34 34 39 35 34 29 32 36 33 42 54 28 32 29 35 38 39
30 27 25 23 21 18 16 13 14 15 16 19 20 24 24 22 24 24 26 27 28 24 21 21 28 26 22 28 26 30 34 34 35 40 32 34 30 35 25 27 32 35 34 37 46 46 50
Wind_Direction
245 248 254 257 264 262 268 286 274 264 265 260 268 272 281 279 289 290 264 245 280 268 272 279 281 273 346 7 338 291 300 311 333 344 353 346 344 340 331 333 331 329 318 328 327 333 334
240 242 248 250 256 262 265 279 271 264 267 266 271 273 276 278 282 290 267 260 272 277 248 267 278 269 2 8 278 298 300 315 329 341 350 354 359 16 356 338 330 325 325 333 325 322 322
235 240 242 246 254 259 267 277 266 268 270 268 273 275 279 282 284 287 275 269 283 285 287 298 311 18 18 0 297 300 316 327 333 350 359 354 9 16 12 357 351 342 324 333 333 327 322
233 236 240 243 250 256 264 272 267 273 273 272 278 284 285 285 281 287 276 261 297 291 284 313 338 1 18 309 309 330 311 337 355 357 1 4 5 12 351 10 352 338 342 323 330 338 329
232 234 236 243 249 256 265 263 272 274 278 278 286 289 289 290 281 281 281 249 295 251 292 275 351 12 360 277 320 318 333 287 316 356 357 355 3 13 355 5 348 344 334 336 334 345 336
230 234 237 236 249 252 260 262 269 276 281 284 288 292 292 293 287 286 286 241 259 270 262 302 7 27 296 294 284 293 304 338 341 354 348 353 14 12 1 358 340 337 340 339 334 336 337
228 231 237 242 240 253 257 261 268 274 278 283 285 296 295 298 289 296 289 236 265 328 331 29 20 39 22 335 335 327 309 340 359 13 13 4 12 3 1 3 0 353 342 336 335 336 332
228 231 236 237 245 250 256 262 267 270 278 285 286 291 295 299 296 306 302 280 288 20 25 316 5 9 356 347 350 345 353 12 12 8 14 8 4 4 4 359 357 351 341 336 338 336 334
227 229 233 239 244 249 253 260 266 271 279 286 290 284 283 286 284 307 329 283 260 347 18 327 313 352 5 13 2 348 4 17 13 11 13 14 5 5 4 359 354 353 346 340 336 339 342
226 229 233 239 242 248 252 259 266 271 279 288 292 288 278 297 290 276 289 270 262 303 23 351 340 343 350 11 1 359 4 13 8 9 7 7 3 2 359 357 354 350 347 342 339 339 332
222 228 235 236 242 247 251 258 266 272 279 287 292 298 306 294 15 285 282 270 293 316 30 357 339 352 1 11 20 353 360 12 13 5 6 2 357 356 354 354 355 352 349 347 345 344 342
222 227 230 236 241 246 251 259 267 272 279 285 289 289 299 303 305 296 283 290 319 28 17 358 351 4 359 3 4 2 1 7 14 10 9 7 7 2 360 356 359 351 353 351 353 353 344
222 226 227 233 240 246 252 261 269 274 278 283 290 303 298 294 310 285 299 307 16 20 350 10 359 358 355 353 355 359 357 356 350 351 351 354 354 358 1 355 0 355 356 351 350 348 346
219 224 224 230 239 245 253 261 268 275 279 280 291 302 311 305 291 292 294 327 354 1 356 344 359 3 346 346 346 352 350 348 354 356 354 347 344 351 355 359 352 356 1 357 348 347 344
216 219 224 229 238 246 253 260 269 272 278 277 286 293 295 294 288 286 293 316 337 343 344 354 353 341 339 336 344 346 347 348 355 360 350 347 346 356 357 3 1 356 356 5 357 355 349
214 218 225 229 236 245 251 257 266 271 274 273 276 285 288 284 286 290 293 310 313 321 330 334 333 335 341 341 344 346 347 354 356 359 1 355 345 352 357 3 5 6 8 358 360 352 350
213 217 223 227 234 242 248 255 262 267 270 270 274 278 284 286 293 286 290 302 310 314 325 321 323 331 334 337 340 342 345 351 356 358 357 357 349 347 353 353 355 357 359 4 6 4 355
211 218 226 224 231 239 246 254 260 263 266 268 273 275 281 285 282 288 289 302 312 312 320 325 327 330 331 334 336 339 340 344 1 3 351 354 349 342 346 352 359 357 359 4 358 358 0
210 214 216 223 229 235 245 252 256 260 259 265 268 280 283 279 276 281 291 297 305 305 310 316 321 329 334 331 335 341 344 348 359 353 355 357 345 339 342 350 351 349 353 359 3 2 356
207 211 216 223 228 233 243 247 252 256 258 268 270 275 279 279 286 278 281 290 300 311 311 321 327 333 333 329 333 340 343 349 348 348 351 355 345 339 334 338 347 343 345 350 353 352 352
207 212 217 222 228 235 242 245 250 253 258 266 275 278 278 273 267 279 286 296 293 305 313 321 320 323 327 330 331 333 340 341 341 344 343 342 334 335 333 333 336 334 333 337 333 341 344
209 212 214 216 225 233 237 243 249 250 257 265 269 283 280 288 270 268 285 286 291 303 314 311 317 323 325 328 329 331 334 333 332 340 338 341 333 338 334 334 328 325 322 320 320 329 327
206 210 212 217 224 232 239 242 247 252 259 266 275 282 285 285 274 275 280 290 291 305 314 323 322 325 325 330 339 340 340 338 335 334 333 335 335 337 334 341 339 333 322 301 326 339 344
206 208 212 218 222 231 241 243 248 253 259 268 267 276 285 282 275 278 292 299 299 308 315 322 331 332 338 356 349 340 334 328 327 323 330 331 333 336 332 338 332 345 355 359 341 340 337
206 210 213 216 220 229 238 241 246 255 255 266 268 277 284 285 286 290 299 313 322 321 324 328 330 337 3 343 334 333 334 334 334 328 311 325 331 333 334 334 332 335 337 334 341 340 331
205 207 210 215 218 223 230 236 242 256 258 262 271 276 291 294 284 300 302 310 312 317 324 327 340 344 340 336 337 333 333 337 340 345 350 337 329 329 335 332 334 345 356 358 358 333 349
201 200 203 209 213 218 222 230 241 253 259 260 277 286 291 302 308 306 301 295 319 316 319 322 327 331 333 334 332 332 333 341 336 337 340 339 332 306 319 325 331 337 337 345 334 338 0
198 200 202 209 212 214 216 225 240 250 261 267 276 290 292 306 319 313 314 311 310 313 317 329 334 327 331 331 335 337 337 341 339 340 343 337 335 331 328 325 326 347 343 325 334 339 338
196 197 202 206 207 208 213 226 240 251 265 277 283 292 303 310 315 317 315 318 318 318 322 321 327 337 343 342 343 346 338 341 339 334 344 331 323 330 321 327 338 342 336 333 329 327 327